Starlink 31253

operational
NORAD ID: 58830 Int'l Des: 2024-017 Owner: SPXS Country: US Constellation: starlink
LEOCIRCULAR

Starlink 31253について

説明を読み込み中...

リアルタイム位置

3D地球を読み込み中...

次回通過

高度履歴

Altitude vs Time

uPlot chart will show altitude changes over time

軌道要素

1 58830U 24017E 25306.09550935 .00005552 00000-0 19944-3 0 9997
2 58830 53.1588 76.7918 0001376 69.2951 290.8197 15.30201867100520
Epoch: Nov 2, 2025 • Age: 19 hours

現在のステータス

高度 478.4 km
速度 7.63 km/s
衛星直下点 42.36°N, 113.24°E
打ち上げ日 Jan 24, 2024
運用期間 1.7 years
タイプ internet

技術仕様

分類 Payload
質量 730.00 kg
乾燥質量 700.00 kg
総質量 730.00 kg
長さ 0.30 m
直径 4.10 m
スパン 29.00 m
形状 Box + pan
製造者 SPXS
バスタイプ Starlink V2M
フェーズステータス In Orbit
所有者/国 SPXS/US

大規模コンステレーション

Loading constellations...